Weather History for KJVL - September, 2013

Change the Weather History Date:

Sunday, September 29, 2013

  Actual Average Record
Temperature  
Mean Temperature 60 °F -  
Max Temperature 71 °F 64 °F 84 °F (2002)
Min Temperature 50 °F 42 °F 30 °F (1991)
Degree Days  
Heating Degree Days 4    
Growing Degree Days 10 (Base 50)    
Moisture  
Dew Point 46 °F    
Average Humidity 75    
Maximum Humidity 94    
Minimum Humidity 23    
Precipitation  
Precipitation 0.00 in - - ()
Sea Level Pressure  
Sea Level Pressure 30.01 in    
Wind  
Wind Speed 3 mph (WNW)    
Max Wind Speed 9 mph    
Max Gust Speed -    
Visibility 8 miles    
Events Fog    
Averages and records for this station are not official NWS values.
T = Trace of Precipitation, MM = Missing Value Source: NWS Daily Summary

Daily Weather History Graph

Daily Weather History Graph

Search for Another Location

Airport or City:

Trip Planner

Search our weather history database for the weather conditions in past years. The results will help you decide how hot, cold, wet, or windy it might be!

Date:

Astronomy

Sep. 29, 2013 Rise Set
Actual Time 6:51 AM CDT 6:40 PM CDT
Civil Twilight 6:23 AM CDT 7:08 PM CDT
Nautical Twilight 5:50 AM CDT 7:41 PM CDT
Astronomical Twilight 5:17 AM CDT 8:14 PM CDT
Moon 1:26 AM CDT (9/29) 3:42 PM CDT (9/29)
Length of Visible Light 12h 45m
Length of Day
11h 49m
Waning Crescent, 27% of the Moon is Illuminated
Sep 29
Waning Crescent
Oct 4
New
Oct 11
First Quarter
Oct 18
Full
Oct 26
Last Quarter

Hourly Weather History & Observations

Time (CDT) Temp. Dew Point Humidity Pressure Visibility Wind Dir Wind Speed Gust Speed Precip Events Conditions
12:15 AM 53.6 °F 51.8 °F 94% 29.98 in 10.0 mi WNW 3.5 mph - N/A   Clear
12:35 AM 53.6 °F 51.8 °F 94% 29.98 in 10.0 mi WNW 5.8 mph - N/A   Clear
12:55 AM 55.4 °F 51.8 °F 88% 29.99 in 10.0 mi WNW 4.6 mph - N/A   Clear
1:15 AM 53.6 °F 51.8 °F 94% 29.99 in 10.0 mi Calm Calm - N/A   Scattered Clouds
1:35 AM 53.6 °F 51.8 °F 94% 30.00 in 10.0 mi Calm Calm - N/A   Clear
1:55 AM 51.8 °F 50.0 °F 94% 30.00 in 10.0 mi West 3.5 mph - N/A   Clear
2:15 AM 53.6 °F 50.0 °F 88% 30.00 in 10.0 mi Calm Calm - N/A   Clear
2:35 AM 53.6 °F 50.0 °F 88% 30.00 in 10.0 mi Calm Calm - N/A   Clear
2:55 AM 51.8 °F 50.0 °F 94% 30.00 in 2.0 mi Calm Calm - N/A   Clear
3:15 AM 50.0 °F 48.2 °F 94% 30.01 in 2.0 mi WNW 3.5 mph - N/A   Scattered Clouds
3:35 AM 51.8 °F 50.0 °F 94% 30.01 in 2.5 mi WNW 8.1 mph - N/A   Mostly Cloudy
3:55 AM 51.8 °F 50.0 °F 94% 30.01 in 4.0 mi WNW 9.2 mph - N/A   Overcast
4:15 AM 51.8 °F 50.0 °F 94% 30.01 in 10.0 mi WNW 6.9 mph - N/A   Overcast
4:35 AM 51.8 °F 50.0 °F 94% 30.01 in 7.0 mi WNW 8.1 mph - N/A   Overcast
4:55 AM 51.8 °F 48.2 °F 88% 30.01 in 7.0 mi WNW 6.9 mph - N/A   Overcast
5:15 AM 51.8 °F 48.2 °F 88% 30.02 in 7.0 mi WNW 9.2 mph - N/A   Mostly Cloudy
5:35 AM 51.8 °F 48.2 °F 88% 30.02 in 7.0 mi WNW 5.8 mph - N/A   Mostly Cloudy
5:45 AM 51.8 °F 48.2 °F 88% 30.03 in 2.5 mi WNW 6.9 mph - N/A   Overcast
6:45 AM 51.8 °F 48.2 °F 88% 30.05 in 0.2 mi NW 8.1 mph - N/A Fog Fog
7:45 AM 51.8 °F 48.2 °F 88% 30.06 in 0.5 mi WNW 5.8 mph - N/A Fog Fog
8:45 AM 51.8 °F 50.0 °F 94% 30.06 in 3.0 mi WNW 5.8 mph - N/A   Mostly Cloudy
9:45 AM 55.4 °F 50.0 °F 82% 30.07 in 10.0 mi WNW 5.8 mph - N/A   Partly Cloudy
10:45 AM 62.6 °F 48.2 °F 59% 30.08 in 10.0 mi Calm Calm - N/A   Clear
12:45 PM 66.2 °F 37.4 °F 35% 30.06 in 10.0 mi Calm Calm - N/A   Clear
2:45 PM 71.6 °F 32.0 °F 23% 30.02 in 10.0 mi North 5.8 mph - N/A   Clear
3:45 PM 69.8 °F 32.0 °F 25% 30.01 in 10.0 mi Calm Calm - N/A   Clear
4:45 PM 69.8 °F 33.8 °F 27% 30.00 in 10.0 mi Calm Calm - N/A   Clear
5:45 PM 69.8 °F 35.6 °F 28% 29.99 in 10.0 mi Calm Calm - N/A   Clear
6:45 PM 66.2 °F 37.4 °F 35% 29.99 in 10.0 mi Calm Calm - N/A   Clear
7:45 PM 57.2 °F 44.6 °F 63% 29.99 in 10.0 mi Calm Calm - N/A   Clear
8:45 PM 55.4 °F 42.8 °F 63% 30.01 in 10.0 mi Calm Calm - N/A   Clear
9:15 PM 53.6 °F 42.8 °F 67% 30.00 in 10.0 mi ESE 4.6 mph - N/A   Clear
9:35 PM 53.6 °F 42.8 °F 67% 30.01 in 10.0 mi SE 4.6 mph - N/A   Clear
9:55 PM 53.6 °F 42.8 °F 67% 30.01 in 10.0 mi Calm Calm - N/A   Clear
10:15 PM 53.6 °F 42.8 °F 67% 30.01 in 10.0 mi Calm Calm - N/A   Clear
10:35 PM 51.8 °F 42.8 °F 71% 30.01 in 10.0 mi Calm Calm - N/A   Clear
10:55 PM 51.8 °F 42.8 °F 71% 30.01 in 10.0 mi Calm Calm - N/A   Clear
11:15 PM 50.0 °F 42.8 °F 76% 30.01 in 10.0 mi Calm Calm - N/A   Clear
11:35 PM 50.0 °F 42.8 °F 76% 30.01 in 10.0 mi Calm Calm - N/A   Clear
11:55 PM 50.0 °F 42.8 °F 76% 30.01 in 10.0 mi Calm Calm - N/A   Clear